sat.trackr.live / text

‹ back to catalog

STARLINK-31641

NORAD 59374 · 2024-062A

PAYLOAD ACTIVE UNKNOWN

§ Identity

Operator
Country
US
Launch date
2024-04-02
Launch site
AFWTR
Launch vehicle
Mass (kg)
RCS (m²)

Purposes: comms

External: N2YO · Heavens-Above · Gunter

§ Orbital elements

Epoch: 2026-09-20T22:19:12.594432Z

Period
93.85 min
Inclination
53.1615°
Eccentricity
0.0001261
Mean motion
15.34393255 rev/d
Perigee alt
461.9 km
Apogee alt
463.6 km
Semi-major
6,840.9 km
B*
5.3926e-5
RAAN
67.3817°
Arg perigee
87.1309°
Mean anomaly
272.9838°
Rev number
13,957

§ Raw data

STARLINK-316411 59374U 24062A   26263.93000688  .00001446  00000+0  53926-4 0  99982 59374  53.1615  67.3817 0001261  87.1309 272.9838 15.34393255139575

JSON: /api/v1/satellites/59374 · /tle

For live sub-satellite position, see the globe view (requires WebGL).

§ Visibility from observer

Set your observer location to see the next 7 days of passes ≥ 10°. The values pass through the URL so the page stays shareable.

No JS? Fill the form by hand. The geolocation button needs JavaScript.